Weather reports worldwide

Advertisment
Brest, France (7110): temperature & dewpoint: 13.12.2018 05:00:00 - 19.12.2018 05:00:00 (CET)Brest, France (7110): temperature 5cm: 13.12.2018 05:00:00 - 19.12.2018 05:00:00 (CET)Brest, France (7110): temperature -20cm & temperature -100cm: 13.12.2018 05:00:00 - 19.12.2018 05:00:00 (CET)Brest, France (7110): wind speed & gusts: 13.12.2018 05:00:00 - 19.12.2018 05:00:00 (CET)Brest, France (7110): wind direction: 13.12.2018 05:00:00 - 19.12.2018 05:00:00 (CET)Brest, France (7110): reduced air pressure: 13.12.2018 05:00:00 - 19.12.2018 05:00:00 (CET)Brest, France (7110): visibility: 13.12.2018 05:00:00 - 19.12.2018 05:00:00 (CET)Brest, France (7110): sunshine duration: 13.12.2018 05:00:00 - 19.12.2018 05:00:00 (CET)Brest, France (7110): precipitation: 13.12.2018 05:00:00 - 19.12.2018 05:00:00 (CET)
Date & Time tt [°C] td [°C] tt 5cm [°C] tt -20cm [°C] tt -100cm [°C] ff [km/h] ff [kn] fx [km/h] fx [kn] dd ppp [hPa] vv [km] sd [min] rr [mm]
19.12.2018 05:00:00 6,9 4,7 4,4 9,3 10,8 11 6 23 12 WSW 1007,2 60 0 0,8
19.12.2018 04:00:00 8,5 5,6 6,4 9,3 10,7 17 9 36 19 W 1007,0 20 0 0,0
19.12.2018 03:00:00 8,0 5,3 6,2 9,3 10,7 23 12 48 26 SW 1006,3 51 0 1,0
19.12.2018 02:00:00 9,1 5,8 7,0 9,4 10,8 28 15 46 25 SW 1005,9 56 0 0,0
19.12.2018 01:00:00 8,8 6,1 7,5 9,4 10,7 24 13 41 22 SW 1005,9 55 0 1,2
19.12.2018 00:00:00 10,1 7,9 7,4 9,4 10,8 26 14 41 22 SSW 1006,0 14 0 0,0
18.12.2018 23:00:00 8,3 6,3 6,9 9,4 10,8 20 11 31 17 S 1006,0 15 0 0,0
18.12.2018 22:00:00 8,1 5,9 6,7 9,5 10,8 22 12 45 24 S 1005,8 17 0 0,0
18.12.2018 21:00:00 9,7 4,9 7,8 9,4 10,8 30 16 44 24 SW 1005,8 60 0 0,0
18.12.2018 20:00:00 9,6 7,0 7,5 9,4 10,8 24 13 37 20 SW 1005,7 16 0 0,0
18.12.2018 19:00:00 9,4 6,8 7,7 9,5 10,8 22 12 36 19 SW 1005,3 41 0 0,0
18.12.2018 18:00:00 9,3 7,9 8,0 9,4 10,8 18 10 31 17 SSW 1005,0 19 0 0,0
18.12.2018 17:00:00 8,9 7,8 8,2 9,4 10,8 18 10 27 15 SW 1004,1 15 0 0,8
18.12.2018 16:00:00 8,6 7,2 8,2 9,4 10,8 16 9 32 17 WSW 1003,8 10 0 0,4
18.12.2018 15:00:00 8,6 7,2 8,4 9,4 10,8 14 8 59 32 W 1003,1 16 0 1,8
18.12.2018 14:00:00 10,0 8,9 9,5 9,4 10,8 34 18 62 33 S 1002,6 3,3 0 2,6
18.12.2018 13:00:00 10,0 8,8 9,4 9,4 10,8 35 19 64 34 S 1003,7 4,2 0 3,7
18.12.2018 12:00:00 10,1 8,2 9,1 9,4 10,8 34 19 59 32 S 1004,9 6 0 1,6
18.12.2018 11:00:00 10,0 7,8 9,2 9,4 10,8 35 19 61 33 S 1005,8 9 0 2,2
18.12.2018 10:00:00 10,4 8,0 9,2 9,3 10,8 40 22 63 34 S 1006,3 6 0 1,2
18.12.2018 09:00:00 11,0 7,3 9,7 9,3 10,8 40 22 66 35 S 1006,4 10 0 0,2
18.12.2018 08:00:00 11,1 7,2 10,5 9,3 10,8 36 19 71 38 SSE 1006,9 20 0 0,0
18.12.2018 07:00:00 11,1 6,8 10,5 9,3 10,8 39 21 68 37 SSE 1008,5 20 0 0,0
18.12.2018 06:00:00 11,1 6,4 9,7 9,3 10,8 40 21 66 36 S 1009,6 20 0 0,0
18.12.2018 05:00:00 11,3 6,6 9,6 9,3 10,9 37 20 69 38 S 1011,1 19 0 0,0
18.12.2018 04:00:00 11,5 5,6 10,1 9,2 10,8 42 23 66 36 S 1012,3 20 0 0,0
18.12.2018 03:00:00 11,2 6,9 10,6 9,2 10,8 39 21 67 36 S 1013,0 45 0 0,0
18.12.2018 02:00:00 11,5 7,6 10,9 9,2 10,9 40 21 71 39 S 1014,0 20 0 0,0
18.12.2018 01:00:00 11,5 8,2 10,8 9,1 10,8 36 20 64 35 S 1014,9 17 0 0,0
18.12.2018 00:00:00 11,4 8,6 10,7 9,1 10,8 38 21 63 34 S 1016,3 15 0 0,0
17.12.2018 23:00:00 11,2 8,9 10,5 9,1 10,9 35 19 61 33 S 1016,7 13 0 0,0
17.12.2018 22:00:00 11,3 9,0 10,8 9,0 10,9 33 18 52 28 S 1017,1 13 0 0,0
17.12.2018 21:00:00 11,6 9,2 10,9 9,0 10,9 33 18 54 29 SSW 1018,1 12 0 0,0
17.12.2018 20:00:00 11,5 9,1 11,0 8,9 10,9 34 19 50 27 SSW 1018,3 12 0 0,0
17.12.2018 19:00:00 11,4 9,1 10,7 8,9 10,9 29 16 43 23 SSW 1018,6 12 0 0,0
17.12.2018 18:00:00 11,3 9,2 10,7 8,8 10,9 27 15 42 23 S 1018,9 12 0 0,0
17.12.2018 17:00:00 11,4 9,3 11,1 8,7 10,9 24 13 40 22 S 1018,7 12 0 0,0
17.12.2018 16:00:00 11,7 8,9 11,6 8,7 10,9 28 15 46 25 SSW 1019,2 13 13 0,0
17.12.2018 15:00:00 11,9 8,7 12,0 8,6 10,9 29 16 45 24 SSW 1019,6 14 0 0,0
17.12.2018 14:00:00 12,1 9,1 11,7 8,6 10,9 26 14 38 21 S 1019,8 16 4 0,0
17.12.2018 13:00:00 11,6 8,8 11,2 8,6 10,9 23 12 38 20 S 1020,6 16 2 0,0
17.12.2018 12:00:00 10,9 8,3 10,4 8,6 10,9 20 11 29 15 SSW 1021,1 14 19 0,0
17.12.2018 11:00:00 9,5 8,4 6,9 8,6 10,9 14 8 19 11 S 1021,0 13 4 0,0
17.12.2018 10:00:00 7,7 6,8 3,4 8,7 10,9 13 7 19 10 S 1020,5 12 1 0,0
17.12.2018 09:00:00 6,9 5,8 3,2 8,7 10,9 12 7 19 10 SSW 1020,1 17 0 0,0
17.12.2018 08:00:00 7,1 4,7 3,6 8,7 10,9 13 7 17 9 SSW 1019,6 20 0 0,0
17.12.2018 07:00:00 8,1 5,4 1,0 8,8 10,9 15 8 24 13 WSW 1019,3 20 0 0,0
17.12.2018 06:00:00 6,5 4,3 2,3 8,8 10,9 11 6 17 9 SW 1018,9 20 0 0,0
17.12.2018 05:00:00 7,4 5,0 0,1 8,9 10,9 14 8 19 10 SW 1018,2 20 0 0,0
17.12.2018 04:00:00 7,2 5,0 2,9 8,9 10,9 9 5 16 8 SW 1018,0 18 0 0,0
17.12.2018 03:00:00 6,6 4,8 -0,1 8,9 10,9 11 6 16 8 SW 1017,3 17 0 0,0
17.12.2018 02:00:00 6,6 4,6 0,5 9,0 10,9 9 5 12 6 SSW 1016,7 20 0 0,0
17.12.2018 01:00:00 6,9 4,7 2,5 9,0 10,9 9 5 21 11 W 1016,3 20 0 0,0
17.12.2018 00:00:00 6,4 4,4 3,3 9,0 11,0 11 6 29 16 WSW 1015,6 20 0 0,4
16.12.2018 23:00:00 7,8 5,4 4,1 9,0 11,0 16 9 31 17 W 1014,8 14 0 0,4
16.12.2018 22:00:00 7,5 4,4 3,9 9,0 10,9 9 5 45 25 W 1013,8 20 0 0,2
16.12.2018 21:00:00 6,7 4,0 2,7 9,1 11,0 11 6 23 12 W 1012,8 20 0 0,0
16.12.2018 20:00:00 8,0 4,2 5,1 9,1 11,0 13 7 35 19 W 1011,6 20 0 0,0
16.12.2018 19:00:00 8,5 4,9 6,0 9,1 11,0 13 7 29 16 W 1010,5 20 0 0,0
16.12.2018 18:00:00 8,3 4,9 6,0 9,0 11,0 16 9 28 15 W 1009,1 20 0 0,0
16.12.2018 17:00:00 8,7 5,8 7,3 9,1 11,0 12 6 25 14 W 1007,8 20 20 0,0
16.12.2018 16:00:00 8,5 6,5 7,8 9,0 11,0 13 7 36 19 WSW 1006,7 20 0 0,0
16.12.2018 15:00:00 8,7 7,1 7,6 9,0 11,0 20 11 36 20 WSW 1005,8 20 0 0,4
16.12.2018 14:00:00 7,8 6,6 6,8 9,1 11,1 18 10 54 29 SW 1005,5 17 0 4,0
16.12.2018 13:00:00 8,9 8,1 7,9 9,1 11,0 24 13 41 22 SSW 1005,5 12 0 1,6
16.12.2018 12:00:00 8,1 7,0 7,3 9,1 11,0 23 13 50 27 S 1006,3 11 0 -
16.12.2018 11:00:00 8,8 7,7 7,7 9,2 11,0 21 11 36 19 S 1006,8 3,6 0 2,6
16.12.2018 10:00:00 8,2 7,1 6,7 9,2 11,0 15 8 28 15 SSE 1007,1 13 0 0,0
16.12.2018 09:00:00 7,4 6,2 5,6 9,2 11,0 14 7 20 11 S 1007,6 5 0 0,0
16.12.2018 08:00:00 7,4 6,2 3,6 9,3 11,1 13 7 19 11 S 1008,1 9 0 0,0
16.12.2018 07:00:00 7,9 5,9 5,7 9,3 11,0 10 6 21 12 S 1008,7 16 0 0,0
16.12.2018 06:00:00 7,9 5,9 4,0 9,4 11,1 14 8 21 11 SSW 1009,2 18 0 0,0
16.12.2018 05:00:00 7,8 5,9 5,1 9,4 11,1 5 3 35 19 SW 1009,9 19 0 -
16.12.2018 04:00:00 8,7 5,1 6,7 9,5 11,1 17 9 40 22 SW 1010,0 12 0 1,2
16.12.2018 03:00:00 8,2 6,3 4,6 9,5 11,1 13 7 17 9 SW 1010,2 14 0 -
16.12.2018 02:00:00 8,1 5,6 5,9 9,5 11,1 13 7 21 12 WSW 1010,3 20 0 -
16.12.2018 01:00:00 9,0 5,7 6,7 9,5 11,1 16 9 30 16 WSW 1010,2 20 0 0,0
16.12.2018 00:00:00 9,3 6,2 7,1 9,6 11,1 18 10 31 17 WSW 1009,8 20 0 0,0
15.12.2018 23:00:00 9,4 6,8 7,2 9,5 11,1 18 10 35 19 WSW 1009,6 17 0 0,0
15.12.2018 22:00:00 9,4 6,5 7,0 9,5 11,1 19 11 29 15 SW 1009,2 17 0 0,0
15.12.2018 21:00:00 8,9 5,6 6,7 9,6 11,1 15 8 38 21 WSW 1009,1 19 0 0,0
15.12.2018 20:00:00 9,4 6,7 7,6 9,5 11,1 16 9 38 21 W 1008,4 17 0 0,0
15.12.2018 19:00:00 10,0 7,8 8,4 9,5 11,1 13 7 39 21 W 1007,6 5 0 0,6
15.12.2018 18:00:00 10,4 6,5 8,6 9,4 11,2 22 12 59 32 W 1006,6 14 0 0,0
15.12.2018 17:00:00 11,7 8,5 10,6 9,3 11,2 35 19 65 35 W 1005,6 11 0 0,0
15.12.2018 16:00:00 12,9 11,6 12,5 9,2 11,2 42 23 69 37 SW 1004,2 16 0 1,5
15.12.2018 15:00:00 13,2 12,9 13,1 9,1 11,2 43 23 74 40 SSW 1004,0 7 0 1,0
15.12.2018 14:00:00 13,1 12,8 13,0 9,0 11,2 39 21 68 37 SSW 1005,0 4,4 0 3,4
15.12.2018 13:00:00 13,1 12,8 12,9 8,9 11,2 42 23 66 35 SSW 1006,1 2,5 0 0,2
15.12.2018 12:00:00 12,9 12,6 12,4 8,9 11,3 33 18 53 29 SSW 1007,4 3,4 0 2,4
15.12.2018 11:00:00 12,4 12,1 9,8 8,9 11,3 28 15 41 22 S 1007,9 2,4 0 1,9
15.12.2018 10:00:00 9,8 9,5 9,7 8,8 11,3 17 9 28 15 SSE 1008,8 0,2 0 0,2
15.12.2018 09:00:00 9,7 9,4 9,2 8,8 11,3 18 10 31 17 SSE 1009,3 6 0 2,2
15.12.2018 08:00:00 9,2 8,9 8,6 8,8 11,3 20 11 35 19 SSE 1010,0 3,5 0 2,6
15.12.2018 07:00:00 8,6 8,3 8,0 8,9 11,3 24 13 44 24 SE 1010,4 1,4 0 4,2
15.12.2018 06:00:00 8,0 7,6 7,7 8,9 11,3 28 15 48 26 SSE 1011,0 2,1 0 2,9
15.12.2018 05:00:00 7,7 7,3 7,3 8,9 11,3 27 15 42 23 SSE 1011,3 1,7 0 0,8
15.12.2018 04:00:00 7,5 7,1 7,1 8,9 11,3 25 14 47 26 SSE 1012,7 2,4 0 1,4
15.12.2018 03:00:00 7,3 6,9 6,5 9,0 11,3 26 14 50 27 SSE 1013,5 3,1 0 1,4
15.12.2018 02:00:00 6,6 6,0 5,9 9,0 11,3 27 14 46 25 SSE 1014,2 3,4 0 0,4
15.12.2018 01:00:00 6,1 5,4 5,1 9,0 11,3 31 17 48 26 SSE 1015,2 3,9 0 0,2
15.12.2018 00:00:00 5,4 4,2 4,8 9,0 11,3 29 16 44 24 SE 1016,4 3,9 0 0,4
14.12.2018 23:00:00 5,1 3,3 4,6 9,0 11,3 27 15 43 23 SSE 1017,2 6 0 0,0
14.12.2018 22:00:00 4,8 3,0 3,9 9,0 11,3 28 15 40 22 SSE 1018,1 6 0 0,0
14.12.2018 21:00:00 4,3 2,6 3,8 9,1 11,3 24 13 36 19 SSE 1018,8 5 0 0,0
14.12.2018 20:00:00 4,1 2,3 3,6 9,1 11,3 24 13 35 19 SE 1019,6 6 0 0,0
14.12.2018 19:00:00 3,9 2,3 3,1 9,1 11,3 23 12 34 18 SSE 1019,4 5 0 0,0
14.12.2018 18:00:00 3,8 2,2 3,3 9,1 11,3 19 10 31 17 SSE 1019,8 5 0 0,0
14.12.2018 17:00:00 4,0 2,3 3,8 9,1 11,3 26 14 35 19 S 1019,9 5 0 0,0
14.12.2018 16:00:00 3,9 2,1 3,8 9,1 11,3 21 11 31 17 SSE 1019,5 6 0 0,0
14.12.2018 15:00:00 3,6 1,6 3,9 9,1 11,3 20 11 32 17 SSE 1019,4 6 0 0,0
14.12.2018 14:00:00 3,4 1,9 3,8 9,2 11,4 20 11 33 18 SSE 1019,9 6 0 0,0
14.12.2018 13:00:00 3,1 2,2 2,8 9,2 11,4 21 12 29 16 SSE 1020,1 4,4 0 0,0
14.12.2018 12:00:00 2,6 1,7 2,8 9,2 11,4 16 8 24 13 SSE 1020,3 3,3 0 0,2
14.12.2018 11:00:00 2,8 1,6 2,8 9,2 11,4 12 6 22 12 SSE 1020,0 1,6 0 0,4
14.12.2018 10:00:00 2,8 1,2 2,6 9,2 11,3 11 6 18 10 SSE 1019,8 4,0 0 0,0
14.12.2018 09:00:00 2,6 1,3 2,3 9,3 11,4 10 5 19 11 SSE 1018,9 4,3 0 0,0
14.12.2018 08:00:00 2,5 1,2 2,4 9,4 11,4 11 6 21 12 SE 1018,1 2,2 0 0,0
14.12.2018 07:00:00 2,7 1,2 2,5 9,4 11,4 13 7 19 10 SSE 1018,1 3,9 0 0,0
14.12.2018 06:00:00 2,8 1,2 2,5 9,4 11,4 9 5 13 7 SSE 1017,7 4,6 0 0,0
14.12.2018 05:00:00 2,7 1,2 2,5 9,4 11,4 6 3 23 13 SE 1017,3 7 0 0,0
14.12.2018 04:00:00 2,7 1,1 2,4 9,5 11,4 11 6 21 11 SE 1017,1 4,1 0 0,0
14.12.2018 03:00:00 2,7 1,1 2,5 9,5 11,4 11 6 25 14 SSE 1016,7 7 0 0,0
14.12.2018 02:00:00 2,7 1,8 2,8 9,6 11,4 19 11 28 15 SE 1016,3 7 0 0,0
14.12.2018 01:00:00 2,8 2,1 2,9 9,6 11,4 17 9 26 14 SSE 1016,0 6 0 0,0
14.12.2018 00:00:00 3,0 2,3 3,1 9,6 11,4 15 8 19 11 SE 1015,4 3,1 0 0,2
13.12.2018 23:00:00 3,3 2,4 3,3 9,6 11,4 13 7 17 9 ESE 1015,1 2,9 0 0,0
13.12.2018 22:00:00 3,5 2,8 3,6 9,6 11,4 13 7 18 10 E 1014,2 4,1 0 0,0
13.12.2018 21:00:00 3,9 3,2 3,9 9,6 11,4 12 7 16 9 E 1013,3 2,1 0 0,0
13.12.2018 20:00:00 4,2 3,5 4,3 9,6 11,4 10 6 19 10 ESE 1012,5 2,3 0 0,2
13.12.2018 19:00:00 4,7 4,0 4,6 9,7 11,4 10 5 21 12 ESE 1011,6 1,8 0 0,0
13.12.2018 18:00:00 4,9 4,0 4,9 9,7 11,4 14 8 22 12 ESE 1010,8 2,3 0 0,6
13.12.2018 17:00:00 5,7 4,2 5,7 9,6 11,4 10 5 15 8 SSE 1010,1 8 0 0,0
13.12.2018 16:00:00 6,1 4,7 6,1 9,7 11,4 5 3 22 12 SE 1008,9 18 0 0,0
13.12.2018 15:00:00 6,1 4,7 6,2 9,7 11,4 11 6 21 11 SE 1007,7 9 0 0,0
13.12.2018 14:00:00 6,5 4,2 5,9 9,7 11,4 9 5 34 19 SE 1007,2 36 0 0,0
13.12.2018 13:00:00 6,0 3,8 5,5 9,7 11,4 26 14 35 19 SE 1006,5 40 0 0,0
13.12.2018 12:00:00 5,8 3,8 5,4 9,7 11,4 21 11 35 19 SE 1006,4 31 0 0,0
13.12.2018 11:00:00 5,6 4,1 4,9 9,8 11,4 24 13 41 22 ESE 1005,7 19 0 0,0
13.12.2018 10:00:00 5,2 3,8 4,5 9,8 11,4 23 13 43 23 ESE 1005,4 17 0 0,0
13.12.2018 09:00:00 4,8 3,6 4,0 9,9 11,4 31 17 47 26 ESE 1004,9 14 0 0,0
13.12.2018 08:00:00 4,4 3,2 4,1 9,9 11,5 29 15 45 24 ESE 1005,0 8 0 1,4
13.12.2018 07:00:00 4,8 3,5 4,5 9,9 11,4 26 14 44 24 SE 1005,0 6 0 0,2
13.12.2018 06:00:00 4,8 3,5 4,5 10,0 11,4 28 15 48 26 SE 1005,1 8 0 0,0
13.12.2018 05:00:00 5,2 3,7 5,1 10,0 11,4 32 18 48 26 SE 1005,5 10 0 0,0

tt = temperature
td = dewpoint
tt 5cm = temperature 5cm
tt -20cm = temperature -20cm
tt -100cm = temperature -100cm
ff = wind speed
fx = gusts
dd = wind direction
ppp = reduced air pressure
vv = visibility
sd = sunshine duration
rr = precipitation

Next stations